When you browse on this site, cookies collect data to enhance your experience and personalize the content and advertising you see.
Visit our Privacy Policy to learn more. By continuing to use the site, you agree to this use of cookies and data.
  • In Portugal
  • List of Countries
  • For 7 days
  • Water Temperature
  • Weather Map
  • Weather Widgets
  • user-avatar
    Login

    Hourly Weather Koszary

    Today, 19 September, Thursday

    Time Temperature Precipitation Wind Pressure Humidity
    00:00 +6°C° 0 mm 2 mps 733 mmHg 83%
    01:00 +6°C° 0 mm 2 mps 733 mmHg 87%
    02:00 +6°C° 0.1 mm 2 mps 734 mmHg 88%
    03:00 +5°C° 0.1 mm 2 mps 734 mmHg 90%
    04:00 +5°C° 0.1 mm 2 mps 734 mmHg 92%
    05:00 +6°C° 0 mm 2 mps 734 mmHg 89%
    06:00 +6°C° 0 mm 2 mps 734 mmHg 86%
    07:00 +7°C° 0 mm 2 mps 734 mmHg 83%
    08:00 +8°C° 0.1 mm 3 mps 734 mmHg 77%
    09:00 +10°C° 0.1 mm 3 mps 735 mmHg 70%
    10:00 +11°C° 0.1 mm 4 mps 735 mmHg 63%
    11:00 +11°C° 0.2 mm 4 mps 735 mmHg 61%
    12:00 +12°C° 0.2 mm 4 mps 734 mmHg 60%
    13:00 +12°C° 0.2 mm 5 mps 734 mmHg 59%
    14:00 +12°C° 0.1 mm 4 mps 734 mmHg 60%
    15:00 +12°C° 0.1 mm 4 mps 734 mmHg 61%
    16:00 +12°C° 0.1 mm 4 mps 734 mmHg 63%
    17:00 +10°C° 0.3 mm 3 mps 734 mmHg 72%
    18:00 +8°C° 0.3 mm 3 mps 734 mmHg 81%
    19:00 +7°C° 0.3 mm 2 mps 734 mmHg 90%
    20:00 +6°C° 0.3 mm 2 mps 735 mmHg 91%
    21:00 +6°C° 0.3 mm 2 mps 735 mmHg 92%
    22:00 +6°C° 0.3 mm 2 mps 735 mmHg 93%
    23:00 +5°C° 0 mm 2 mps 735 mmHg 93%

    Tomorrow, 20 September, Friday

    Time Temperature Precipitation Wind Pressure Humidity
    00:00 +5°C° 0 mm 2 mps 736 mmHg 93%
    01:00 +5°C° 0 mm 2 mps 736 mmHg 93%
    02:00 +4°C° 0 mm 2 mps 736 mmHg 93%
    03:00 +4°C° 0 mm 2 mps 736 mmHg 93%
    04:00 +4°C° 0 mm 2 mps 736 mmHg 94%
    05:00 +4°C° 0 mm 2 mps 736 mmHg 92%
    06:00 +5°C° 0 mm 2 mps 736 mmHg 91%
    07:00 +6°C° 0 mm 2 mps 736 mmHg 89%
    08:00 +7°C° 0 mm 2 mps 737 mmHg 82%
    09:00 +9°C° 0 mm 3 mps 737 mmHg 75%
    10:00 +10°C° 0 mm 3 mps 737 mmHg 67%
    11:00 +11°C° 0.1 mm 3 mps 737 mmHg 63%
    12:00 +12°C° 0.1 mm 3 mps 737 mmHg 59%
    13:00 +13°C° 0.1 mm 3 mps 736 mmHg 55%
    14:00 +12°C° 0.1 mm 3 mps 736 mmHg 56%
    15:00 +12°C° 0.1 mm 3 mps 736 mmHg 58%
    16:00 +12°C° 0.1 mm 3 mps 736 mmHg 59%
    17:00 +10°C° 0 mm 2 mps 736 mmHg 66%
    18:00 +9°C° 0 mm 2 mps 736 mmHg 73%
    19:00 +8°C° 0 mm 1 mps 736 mmHg 80%
    20:00 +8°C° 0 mm 1 mps 736 mmHg 81%
    21:00 +7°C° 0 mm 1 mps 736 mmHg 82%
    22:00 +7°C° 0 mm 1 mps 736 mmHg 83%
    23:00 +7°C° 0 mm 1 mps 736 mmHg 84%

    Day after tomorrow, 21 September, Saturday

    Time Temperature Precipitation Wind Pressure Humidity
    00:00 +6°C° 0 mm 1 mps 736 mmHg 84%
    01:00 +6°C° 0 mm 1 mps 736 mmHg 85%
    02:00 +6°C° 0 mm 1 mps 736 mmHg 85%
    03:00 +6°C° 0 mm 1 mps 736 mmHg 85%
    04:00 +6°C° 0 mm 1 mps 736 mmHg 85%
    05:00 +6°C° 0 mm 1 mps 736 mmHg 80%
    06:00 +7°C° 0 mm 1 mps 736 mmHg 76%
    07:00 +8°C° 0 mm 1 mps 736 mmHg 72%
    08:00 +11°C° 0 mm 1 mps 736 mmHg 64%
    09:00 +13°C° 0 mm 1 mps 736 mmHg 56%
    10:00 +16°C° 0 mm 1 mps 736 mmHg 49%
    11:00 +18°C° 0 mm 1 mps 736 mmHg 46%
    12:00 +18°C° 0 mm 1 mps 736 mmHg 44%
    13:00 +19°C° 0 mm 1 mps 735 mmHg 42%
    14:00 +19°C° 0 mm 1 mps 735 mmHg 47%
    15:00 +18°C° 0 mm 1 mps 735 mmHg 51%
    16:00 +18°C° 0 mm 1 mps 734 mmHg 56%
    17:00 +15°C° 0 mm 1 mps 734 mmHg 62%
    18:00 +13°C° 0 mm 1 mps 734 mmHg 68%
    19:00 +11°C° 0 mm 1 mps 734 mmHg 74%
    20:00 +10°C° 0 mm 1 mps 734 mmHg 75%
    21:00 +10°C° 0 mm 1 mps 734 mmHg 76%
    22:00 +10°C° 0 mm 1 mps 734 mmHg 78%
    23:00 +9°C° 0 mm 1 mps 734 mmHg 78%

    22 September, Sunday

    Time Temperature Precipitation Wind Pressure Humidity
    00:00 +9°C° 0 mm 1 mps 734 mmHg 78%
    01:00 +9°C° 0 mm 1 mps 733 mmHg 78%
    02:00 +9°C° 0 mm 1 mps 733 mmHg 79%
    03:00 +8°C° 0 mm 1 mps 733 mmHg 79%
    04:00 +8°C° 0 mm 1 mps 733 mmHg 79%
    05:00 +9°C° 0 mm 1 mps 733 mmHg 76%
    06:00 +10°C° 0 mm 1 mps 733 mmHg 73%
    07:00 +11°C° 0 mm 1 mps 732 mmHg 70%
    08:00 +13°C° 0 mm 1 mps 732 mmHg 62%
    09:00 +15°C° 0 mm 1 mps 732 mmHg 54%
    10:00 +19°C° 0 mm 1 mps 732 mmHg 46%
    11:00 +19°C° 0 mm 2 mps 732 mmHg 45%
    12:00 +20°C° 0 mm 2 mps 731 mmHg 43%
    13:00 +21°C° 0 mm 2 mps 731 mmHg 41%
    14:00 +21°C° 0 mm 2 mps 730 mmHg 45%
    15:00 +20°C° 0 mm 2 mps 730 mmHg 50%
    16:00 +20°C° 0 mm 2 mps 729 mmHg 54%
    17:00 +17°C° 0 mm 2 mps 729 mmHg 58%
    18:00 +15°C° 0 mm 2 mps 729 mmHg 62%
    19:00 +13°C° 0 mm 2 mps 728 mmHg 66%
    20:00 +13°C° 0 mm 2 mps 728 mmHg 63%
    21:00 +14°C° 0 mm 2 mps 728 mmHg 61%
    22:00 +14°C° 0 mm 2 mps 728 mmHg 58%
    23:00 +14°C° 0 mm 2 mps 727 mmHg 55%

    23 September, Monday

    Time Temperature Precipitation Wind Pressure Humidity
    00:00 +15°C° 0 mm 2 mps 727 mmHg 52%
    01:00 +15°C° 0 mm 2 mps 727 mmHg 50%
    02:00 +14°C° 0 mm 2 mps 726 mmHg 50%
    03:00 +14°C° 0 mm 2 mps 726 mmHg 51%
    04:00 +14°C° 0 mm 2 mps 725 mmHg 51%
    05:00 +14°C° 0 mm 2 mps 725 mmHg 54%
    06:00 +14°C° 0 mm 2 mps 725 mmHg 57%
    07:00 +14°C° 0 mm 2 mps 725 mmHg 60%
    08:00 +16°C° 0 mm 2 mps 725 mmHg 57%
    09:00 +18°C° 0 mm 2 mps 725 mmHg 53%
    10:00 +20°C° 0 mm 2 mps 725 mmHg 49%
    11:00 +21°C° 0 mm 2 mps 725 mmHg 50%
    12:00 +21°C° 0 mm 2 mps 724 mmHg 50%
    13:00 +23°C° 0 mm 2 mps 724 mmHg 51%
    14:00 +20°C° 0 mm 2 mps 724 mmHg 57%
    15:00 +19°C° 0 mm 2 mps 724 mmHg 63%
    16:00 +18°C° 0 mm 2 mps 724 mmHg 69%
    17:00 +17°C° 0 mm 2 mps 724 mmHg 72%
    18:00 +17°C° 0 mm 2 mps 724 mmHg 74%
    19:00 +16°C° 0 mm 2 mps 724 mmHg 77%
    20:00 +15°C° 0.3 mm 2 mps 724 mmHg 82%
    21:00 +15°C° 0.3 mm 2 mps 724 mmHg 87%
    22:00 +13°C° 0.3 mm 3 mps 725 mmHg 92%
    23:00 +13°C° 0.9 mm 3 mps 725 mmHg 92%

    24 September, Tuesday

    Time Temperature Precipitation Wind Pressure Humidity
    00:00 +13°C° 0.9 mm 4 mps 725 mmHg 93%
    01:00 +13°C° 0.9 mm 4 mps 725 mmHg 93%
    02:00 +12°C° 0 mm 3 mps 725 mmHg 93%
    03:00 +11°C° 0 mm 3 mps 725 mmHg 93%
    04:00 +12°C° 0 mm 2 mps 724 mmHg 93%
    05:00 +11°C° 0.1 mm 3 mps 725 mmHg 92%
    06:00 +11°C° 0.1 mm 3 mps 725 mmHg 91%
    07:00 +12°C° 0.1 mm 3 mps 725 mmHg 90%
    08:00 +12°C° 0.8 mm 4 mps 725 mmHg 89%
    09:00 +12°C° 0.8 mm 4 mps 725 mmHg 89%
    10:00 +12°C° 0.8 mm 4 mps 725 mmHg 88%
    11:00 +12°C° 1.5 mm 4 mps 725 mmHg 89%
    12:00 +12°C° 1.5 mm 4 mps 725 mmHg 91%
    13:00 +12°C° 1.5 mm 3 mps 725 mmHg 92%
    14:00 +13°C° 0.2 mm 3 mps 725 mmHg 90%
    15:00 +14°C° 0.2 mm 2 mps 725 mmHg 88%
    16:00 +15°C° 0.2 mm 2 mps 726 mmHg 85%
    17:00 +14°C° 0.1 mm 2 mps 726 mmHg 87%
    18:00 +13°C° 0.1 mm 2 mps 726 mmHg 89%
    19:00 +12°C° 0.1 mm 2 mps 726 mmHg 91%
    20:00 +12°C° 0 mm 2 mps 726 mmHg 91%
    21:00 +10°C° 0 mm 2 mps 726 mmHg 92%
    22:00 +10°C° 0 mm 2 mps 726 mmHg 93%
    23:00 +10°C° 0 mm 2 mps 726 mmHg 92%
    Show more